File backup.txt content, last update Wednesday September 28 2022, 05:21:18


1664332926 Temp=6.84*C Humidity=78.18% Pressure=98237.10Pa
1664332986 Temp=6.81*C Humidity=78.27% Pressure=98241.09Pa
1664333046 Temp=6.80*C Humidity=78.28% Pressure=98240.12Pa
1664333106 Temp=6.77*C Humidity=78.38% Pressure=98241.80Pa
1664333167 Temp=6.76*C Humidity=78.32% Pressure=98243.04Pa
1664333226 Temp=6.75*C Humidity=78.36% Pressure=98238.70Pa
1664333286 Temp=6.74*C Humidity=78.39% Pressure=98237.45Pa
1664333346 Temp=6.72*C Humidity=78.41% Pressure=98239.66Pa
1664333406 Temp=6.70*C Humidity=78.41% Pressure=98234.12Pa
1664333466 Temp=6.67*C Humidity=78.49% Pressure=98237.73Pa
1664333526 Temp=6.66*C Humidity=78.55% Pressure=98235.20Pa
1664333586 Temp=6.63*C Humidity=78.64% Pressure=98233.00Pa
1664333646 Temp=6.62*C Humidity=78.73% Pressure=98237.38Pa
1664333706 Temp=6.61*C Humidity=78.82% Pressure=98237.92Pa
1664333766 Temp=6.60*C Humidity=78.82% Pressure=98237.28Pa
1664333826 Temp=6.59*C Humidity=78.94% Pressure=98239.23Pa
1664333886 Temp=6.59*C Humidity=79.01% Pressure=98238.58Pa
1664333946 Temp=6.58*C Humidity=78.99% Pressure=98238.84Pa
1664334006 Temp=6.58*C Humidity=79.03% Pressure=98244.14Pa
1664334067 Temp=6.58*C Humidity=78.97% Pressure=98239.09Pa
1664334126 Temp=6.57*C Humidity=78.98% Pressure=98244.30Pa
1664334186 Temp=6.56*C Humidity=78.96% Pressure=98241.29Pa
1664334246 Temp=6.55*C Humidity=78.98% Pressure=98238.52Pa
1664334306 Temp=6.54*C Humidity=78.96% Pressure=98243.07Pa
1664334366 Temp=6.53*C Humidity=78.97% Pressure=98236.72Pa
1664334426 Temp=6.51*C Humidity=79.02% Pressure=98233.12Pa
1664334486 Temp=6.51*C Humidity=79.00% Pressure=98239.60Pa
1664334546 Temp=6.51*C Humidity=78.99% Pressure=98237.13Pa
1664334606 Temp=6.52*C Humidity=79.03% Pressure=98236.86Pa
1664334666 Temp=6.51*C Humidity=79.05% Pressure=98238.05Pa
1664334726 Temp=6.52*C Humidity=79.05% Pressure=98236.19Pa
1664334787 Temp=6.50*C Humidity=79.04% Pressure=98232.41Pa
1664334846 Temp=6.51*C Humidity=78.99% Pressure=98228.73Pa
1664334906 Temp=6.51*C Humidity=78.94% Pressure=98232.89Pa
1664334966 Temp=6.52*C Humidity=78.92% Pressure=98232.40Pa
1664335026 Temp=6.51*C Humidity=78.90% Pressure=98236.99Pa
1664335086 Temp=6.51*C Humidity=78.87% Pressure=98234.94Pa
1664335147 Temp=6.52*C Humidity=78.83% Pressure=98228.83Pa
1664335207 Temp=6.53*C Humidity=78.87% Pressure=98228.09Pa
1664335267 Temp=6.56*C Humidity=78.90% Pressure=98228.70Pa
Showing last 40 lines from file [/srv/app/pi-web01/chroot/pi-ws02/var/backup.txt] (60 total lines).

Station Logs

File Name
sensor.txt
backup.txt
outage.log
outlier.log
rrd.log
Display Limit